Location: Innsbruck
(47.2657°N, 11.3914°E)
Time: 13:48:16
(UTC+02:00)

Envisat - Pass Details

Date: 30 September 2021
Orbit: 764 x 766 km, 98.2° (Epoch: 20 October)

Event Time Altitude Azimuth Distance (km) Brightness Sun altitude
Rises 06:09:58 0° 17° (NNE) 3,243 6.6 -11.3°
Reaches altitude 10° 06:12:20 10° 21° (NNE) 2,312 5.9 -10.9°
Maximum altitude 06:17:21 57° 100° (E) 903 3.8 -10.1°
Drops below altitude 10° 06:22:19 10° 179° (S) 2,294 5.4 -9.3°
Sets 06:24:39 0° 184° (S) 3,216 6.1 -8.9°
